Fairchild Air Force Base, WA

2:31 AM PDT on August 28, 2016 (GMT -0700)
Fairchild Air Force Base

Weather History for KSKA - July, 2013

Change the Weather History Date:

Thursday, July 18, 2013

  Actual Average Record
Temperature  
Mean Temperature 73 °F -  
Max Temperature 88 °F 82 °F 96 °F (2003)
Min Temperature 59 °F 55 °F 46 °F (1999)
Cooling Degree Days 8    
Growing Degree Days 23 (Base 50)    
Moisture  
Dew Point 49 °F    
Average Humidity 42    
Maximum Humidity 77    
Minimum Humidity 21    
Precipitation  
Precipitation 0.00 in - - ()
Sea Level Pressure  
Sea Level Pressure 30.10 in    
Wind  
Wind Speed 5 mph (ESE)    
Max Wind Speed 9 mph    
Max Gust Speed -    
Visibility 10 miles    
Events Rain    
Averages and records for this station are not official NWS values.
T = Trace of Precipitation, MM = Missing Value Source: NWS Daily Summary

Daily Weather History Graph

Daily Weather History Graph

Search for Another Location

Airport or City:

Trip Planner

Search our weather history database for the weather conditions in past years. The results will help you decide how hot, cold, wet, or windy it might be!

Date:

Astronomy

Jul. 18, 2013 Rise Set
Actual Time 5:11 AM PDT 8:41 PM PDT
Civil Twilight 4:33 AM PDT 9:19 PM PDT
Nautical Twilight 3:42 AM PDT 10:10 PM PDT
Astronomical Twilight 2:34 AM PDT 11:17 PM PDT
Moon 4:41 PM PDT (7/18) 1:10 AM PDT (7/18)
Length of Visible Light 16h 45m
Length of Day
15h 29m
Waxing Gibbous, 78% of the Moon is Illuminated
Jul 18
Waxing Gibbous
Jul 22
Full
Jul 29
Last Quarter
Aug 6
New
Aug 14
First Quarter

Hourly Weather History & Observations

Time (PDT) Temp. Dew Point Humidity Pressure Visibility Wind Dir Wind Speed Gust Speed Precip Events Conditions
12:58 AM 62.2 °F 51.8 °F 69% 30.06 in 10.0 mi NNW 5.8 mph - N/A   Clear
1:58 AM 65.5 °F 52.2 °F 62% 30.06 in 10.0 mi NNW 4.6 mph - N/A   Clear
2:58 AM 59.5 °F 51.4 °F 75% 30.08 in 10.0 mi NNW 2.3 mph - N/A   Clear
3:58 AM 59.2 °F 51.8 °F 77% 30.08 in 10.0 mi ESE 4.6 mph - N/A   Clear
4:58 AM 59.5 °F 51.6 °F 75% 30.09 in 10.0 mi ENE 4.6 mph - N/A   Clear
5:58 AM 60.1 °F 52.0 °F 75% 30.09 in 10.0 mi NE 3.5 mph - N/A   Clear
6:58 AM 62.6 °F 51.3 °F 66% 30.11 in 10.0 mi ENE 5.8 mph - N/A   Clear
7:58 AM 65.1 °F 50.0 °F 58% 30.12 in 10.0 mi East 2.3 mph - N/A   Clear
8:58 AM 69.3 °F 52.7 °F 56% 30.14 in 10.0 mi ESE 4.6 mph - N/A   Clear
9:58 AM 73.0 °F 53.8 °F 51% 30.14 in 10.0 mi SE 4.6 mph - N/A   Clear
10:58 AM 77.2 °F 53.2 °F 43% 30.13 in 10.0 mi Variable 2.3 mph - N/A   Clear
11:48 AM 80.6 °F 50.0 °F 34% 30.16 in 10.0 mi SE 4.6 mph - N/A   Light Drizzle
11:56 AM 80.6 °F 50.0 °F 34% 30.16 in 10.0 mi SE 4.6 mph - N/A   Clear
11:58 AM 80.2 °F 50.0 °F 35% 30.13 in 10.0 mi ESE 3.5 mph - 0.00 in   Clear
12:00 PM 80.6 °F 50.0 °F 34% 30.16 in 10.0 mi SE 6.9 mph - N/A Rain Light Rain
12:08 PM 80.6 °F 50.0 °F 34% 30.16 in 10.0 mi SE 5.8 mph - N/A   Clear
12:56 PM 82.4 °F 48.2 °F 30% 30.15 in 10.0 mi South 5.8 mph - N/A Rain Light Rain
12:58 PM 82.4 °F 47.8 °F 30% 30.12 in 10.0 mi SSW 5.8 mph - 0.00 in Rain Light Rain
1:01 PM 82.4 °F 48.2 °F 30% 30.15 in 10.0 mi Variable 4.6 mph - N/A   Clear
1:58 PM 85.3 °F 45.9 °F 25% 30.10 in 10.0 mi South 4.6 mph - 0.00 in   Clear
2:58 PM 86.2 °F 47.1 °F 26% 30.09 in 10.0 mi South 9.2 mph - N/A   Clear
3:58 PM 86.9 °F 42.3 °F 21% 30.08 in 10.0 mi West 9.2 mph - N/A   Clear
4:58 PM 87.6 °F 43.7 °F 22% 30.06 in 10.0 mi ESE 6.9 mph - N/A   Clear
5:58 PM 86.4 °F 43.0 °F 22% 30.04 in 10.0 mi SSE 4.6 mph - N/A   Clear
6:58 PM 86.2 °F 43.2 °F 22% 30.03 in 10.0 mi WNW 2.3 mph - N/A   Clear
7:58 PM 81.9 °F 48.9 °F 32% 30.02 in 10.0 mi North 5.8 mph - N/A   Clear
8:58 PM 79.5 °F 46.0 °F 31% 30.03 in 10.0 mi North 5.8 mph - N/A   Clear
9:58 PM 74.7 °F 45.5 °F 35% 30.04 in 10.0 mi ENE 3.5 mph - N/A   Clear
10:58 PM 74.5 °F 44.2 °F 34% 30.04 in 10.0 mi ENE 3.5 mph - N/A   Clear
11:58 PM 72.3 °F 43.2 °F 35% 30.04 in 10.0 mi East 2.3 mph - N/A   Clear